Terminal Aerodrome Forecast
Issued by NWS

Current Version | Previous Version | Text Only | Print | Product List | Glossary Off
Versions: 1 2 3 4 5 6 7 8 9 10 11 12 13 14 15 16 17 18 19 20 21 22 23 24 25 26 27 28 29 30 31 32 33 34 35 36 37 38 39 40 41 42 43 44 45 46 47 48 49 50

000
FTUS41 KRNK 211351 AAA
TAFLWB
TAF AMD
KLWB 211351Z 2114/2212 VRB03KT P6SM BKN040
     FM211600 14005KT P6SM VCSH SCT030 BKN050
     FM212000 14004KT P6SM VCTS BKN035CB
     FM220100 00000KT 4SM -DZ BR OVC025
     FM220600 00000KT 1SM -DZ BR OVC015=

USA.gov is the U.S. government's official web portal to all federal, state and local government web resources and services.